Greensboro, NC

10:51 PM EDT on September 28, 2016 (GMT -0400)
Piedmont Triad International

Weather History for KGSO - March, 2013

Change the Weather History Date:

Friday, March 29, 2013

  Actual Average Record
Temperature  
Mean Temperature 45 °F 54 °F  
Max Temperature 60 °F 65 °F 91 °F (1907)
Min Temperature 29 °F 43 °F 20 °F (1966)
Degree Days  
Heating Degree Days 20 11  
Month to date heating degree days 621 447  
Since 1 July heating degree days 3325 3302  
Cooling Degree Days 0 0  
Month to date cooling degree days 0 0  
Year to date cooling degree days 0 0  
Moisture  
Dew Point 22 °F    
Average Humidity 47    
Maximum Humidity 72    
Minimum Humidity 21    
Precipitation  
Precipitation 0.00 in 0.12 in 3.60 in (1991)
Month to date precipitation 2.35 3.48  
Year to date precipitation 11.02 9.50  
Snow  
Snow 0.00 in 0.00 in T in (1959)
Month to date snowfall T 0.8  
Since 1 July snowfall 3.6 7.5  
Snow Depth 0.00 in    
Sea Level Pressure  
Sea Level Pressure 30.25 in    
Wind  
Wind Speed 5 mph (West)    
Max Wind Speed 17 mph    
Max Gust Speed 23 mph    
Visibility 10 miles    
Events      
T = Trace of Precipitation, MM = Missing Value Source: NWS Daily Summary

Daily Weather History Graph

Daily Weather History Graph

Search for Another Location

Airport or City:

Trip Planner

Search our weather history database for the weather conditions in past years. The results will help you decide how hot, cold, wet, or windy it might be!

Date:

Astronomy

Mar. 29, 2013 Rise Set
Actual Time 7:09 AM EDT 7:39 PM EDT
Civil Twilight 6:44 AM EDT 8:05 PM EDT
Nautical Twilight 6:14 AM EDT 8:35 PM EDT
Astronomical Twilight 5:43 AM EDT 9:06 PM EDT
Moon 10:31 PM EDT 8:23 AM EDT
Length of Visible Light 13h 20m
Length of Day
12h 29m
Waning Gibbous, 93% of the Moon is Illuminated
Mar 29
Waning Gibbous
Apr 3
Last Quarter
Apr 10
New
Apr 18
First Quarter
Apr 25
Full

Hourly Weather History & Observations

Time (EDT) Temp. Windchill Dew Point Humidity Pressure Visibility Wind Dir Wind Speed Gust Speed Precip Events Conditions
12:54 AM 37.9 °F - 23.0 °F 55% 30.29 in 10.0 mi Calm Calm - N/A   Clear
1:54 AM 36.0 °F - 23.0 °F 59% 30.29 in 10.0 mi Calm Calm - N/A   Clear
2:54 AM 33.1 °F - 23.0 °F 66% 30.29 in 10.0 mi Calm Calm - N/A   Clear
3:54 AM 32.0 °F - 23.0 °F 69% 30.28 in 10.0 mi Calm Calm - N/A   Clear
4:54 AM 30.9 °F - 23.0 °F 72% 30.28 in 10.0 mi Calm Calm - N/A   Clear
5:54 AM 30.0 °F - 23.0 °F 75% 30.29 in 10.0 mi Calm Calm - N/A   Clear
6:54 AM 33.1 °F - 21.9 °F 64% 30.30 in 10.0 mi Calm Calm - N/A   Clear
7:54 AM 35.1 °F 31.0 °F 23.0 °F 61% 30.32 in 10.0 mi WNW 4.6 mph - N/A   Clear
8:54 AM 44.1 °F 38.6 °F 24.1 °F 45% 30.32 in 10.0 mi NW 10.4 mph - N/A   Clear
9:54 AM 48.0 °F - 21.9 °F 36% 30.31 in 10.0 mi NW 5.8 mph - N/A   Clear
10:54 AM 51.1 °F - 21.0 °F 31% 30.32 in 10.0 mi NW 8.1 mph - N/A   Partly Cloudy
11:54 AM 51.1 °F - 19.9 °F 29% 30.30 in 10.0 mi Variable 3.5 mph - N/A   Partly Cloudy
12:54 PM 53.1 °F - 19.9 °F 27% 30.27 in 10.0 mi West 8.1 mph - N/A   Partly Cloudy
1:54 PM 55.9 °F - 19.0 °F 24% 30.24 in 10.0 mi Variable 3.5 mph 18.4 mph N/A   Partly Cloudy
2:54 PM 57.0 °F - 19.0 °F 23% 30.22 in 10.0 mi West 9.2 mph - N/A   Partly Cloudy
3:54 PM 57.0 °F - 17.1 °F 21% 30.19 in 10.0 mi West 9.2 mph 17.3 mph N/A   Partly Cloudy
4:54 PM 57.9 °F - 17.1 °F 20% 30.18 in 10.0 mi West 6.9 mph - N/A   Partly Cloudy
5:54 PM 57.9 °F - 18.0 °F 21% 30.17 in 10.0 mi West 10.4 mph - N/A   Partly Cloudy
6:54 PM 57.0 °F - 19.9 °F 24% 30.17 in 10.0 mi SW 10.4 mph - N/A   Scattered Clouds
7:54 PM 54.0 °F - 21.9 °F 29% 30.17 in 10.0 mi WSW 6.9 mph - N/A   Mostly Cloudy
8:54 PM 53.1 °F - 21.0 °F 29% 30.18 in 10.0 mi WSW 4.6 mph - N/A   Scattered Clouds
9:54 PM 52.0 °F - 21.9 °F 31% 30.19 in 10.0 mi West 9.2 mph - N/A   Scattered Clouds
10:54 PM 48.9 °F - 28.0 °F 44% 30.20 in 10.0 mi West 5.8 mph - N/A   Mostly Cloudy
11:54 PM 50.0 °F - 30.9 °F 48% 30.20 in 10.0 mi West 6.9 mph - N/A   Mostly Cloudy